Preview of NWS' New Version of Forecast
This preview is not operational and should not be used for support decisions.

Regional Weather Roundup (RWR)

Issued by National Weather Service (NWS)

                            
000
ASUS46 KSEW 190010
RWRWA 

WASHINGTON REGIONAL WEATHER ROUNDUP
NATIONAL WEATHER SERVICE SEATTLE WA
500 PM PDT TUE JUN 18 2019

NOTE:"FAIR" INDICATES FEW OR NO CLOUDS BELOW 12,000 FEET WITH NO 
SIGNIFICANT WEATHER AND/OR OBSTRUCTIONS TO VISIBILITY.

WAZ507-509-555>559-190100-
SEATTLE, TACOMA, EVERETT, AND VICINITY
  
CITY           SKY/WX    TMP DP  RH WIND       PRES   REMARKS
EVERETT        CLOUDY    58  51  78 N6        30.23S                  
6HR MIN TEMP:  56; 6HR MAX TEMP:  60;                                

BOEING FIELD   CLOUDY    64  53  67 SE8       30.20F                  
6HR MIN TEMP:  59; 6HR MAX TEMP:  65; 6HR PCP: TRACE;                

RENTON         CLOUDY    65  56  72 VRB5      30.20F                  
6HR MIN TEMP:  59; 6HR MAX TEMP:  65; 6HR PCP: TRACE;                

SEATAC AIRPORT CLOUDY    64  53  67 S5        30.21F                  
6HR MIN TEMP:  58; 6HR MAX TEMP:  66; 6HR PCP:  0.04;                

JBLM-MCCHORD   CLOUDY    67  58  72 S10       30.20F                  
6HR MIN TEMP:  60; 6HR MAX TEMP:  67;                                

PUYALLUP       CLOUDY    64  55  72 VRB6      30.22F                  
BREMERTON      PTSUNNY   64  56  75 NE13      30.20F                  
6HR MIN TEMP:  57; 6HR MAX TEMP:  66;                                

JBLM-FT LEWIS  CLOUDY    67  58  72 SE8       30.19F                  
6HR MIN TEMP:  60; 6HR MAX TEMP:  68;                                

TACOMA NARROWS PTSUNNY   65  52  62 S7        30.19F                  
6HR MIN TEMP:  56; 6HR MAX TEMP:  67;                                

$$
 
WAZ001-503-506-510-514-515-190100-
NORTH INTERIOR
  
CITY           SKY/WX    TMP DP  RH WIND       PRES   REMARKS
BELLINGHAM     SUNNY     65  49  56 S16G30    30.17F                  
6HR MIN TEMP:  63; 6HR MAX TEMP:  68;                                

FRIDAY HARBOR  SUNNY     70  50  49 SW12      30.17F                  
6HR MIN TEMP:  64; 6HR MAX TEMP:  86;                                

EASTSOUND      SUNNY     66  52  59 S14       30.15F                  
PORT ANGELES   SUNNY     59  49  69 W12G23    30.22F                  
6HR MIN TEMP:  56; 6HR MAX TEMP:  62;                                

EDIZ HOOK      FAIR      57  50  77 W21G28    30.21F                  
6HR MIN TEMP:  57; 6HR MAX TEMP:  59;                                

PORT TOWNSEND  CLOUDY    63  52  67 CALM      30.21F                  
NAS WHIDBEY    PTSUNNY   64  50  60 SW14G23   30.24F                  
ARLINGTON      CLOUDY    64  51  62 NW10      30.22S                  
6HR MIN TEMP:  61; 6HR MAX TEMP:  67;                                

BURLINGTON     MOSUNNY   66  50  55 SW17G25   30.21F                  
$$
 
WAZ020-022-039-040-504-511-512-190100-
SOUTHWEST INTERIOR
  
CITY           SKY/WX    TMP DP  RH WIND       PRES   REMARKS
SHELTON        MOSUNNY   70  46  42 SW21G26   30.17F                  
6HR MIN TEMP:  60; 6HR MAX TEMP:  73;                                

OLYMPIA        MOSUNNY   69  48  47 W12       30.20F                  
6HR MIN TEMP:  59; 6HR MAX TEMP:  70;                                

CHEHALIS       FAIR      70  48  46 NW8       30.23S HAZE             
KELSO          MOSUNNY   65  49  56 W12G20    30.24S                  
6HR MIN TEMP:  62; 6HR MAX TEMP:  68;                                

VANCOUVER      SUNNY     71  48  43 W13G20    30.20F                  
6HR MIN TEMP:  65; 6HR MAX TEMP:  71;                                

SCAPPOOSE, OR  SUNNY     69  48  47 W9G18     30.21F                  
6HR MIN TEMP:  65; 6HR MAX TEMP:  71;                                

PORTLAND, OR   MOSUNNY   73  48  41 NW13      30.21F                  
6HR MIN TEMP:  66; 6HR MAX TEMP:  73;                                

$$
 
WAZ021-516-517-190100-
WASHINGTON COAST
  
CITY           SKY/WX    TMP DP  RH WIND       PRES   REMARKS
FORKS          PTSUNNY   59  49  69 W8G20     30.28F                  
6HR MIN TEMP:  57; 6HR MAX TEMP:  62;                                

HOQUIAM        MOSUNNY   61  51  70 W20       30.26F                  
6HR MIN TEMP:  60; 6HR MAX TEMP:  63;                                

ASTORIA, OR    CLOUDY    60  48  64 NW13      30.29F                  
6HR MIN TEMP:  57; 6HR MAX TEMP:  62; 6HR PCP: TRACE;                

$$
 
WAZ019-023-024-040-567>569-190100-
CASCADE MOUNTAINS AND COLUMBIA GORGE
  
CITY           SKY/WX    TMP DP  RH WIND       PRES   REMARKS
STAMPEDE PASS  PTSUNNY   54  46  74 VRB7      30.20F                  
6HR MIN TEMP:  51; 6HR MAX TEMP:  55;                                

TROUTDALE, OR  MOSUNNY   72  49  44 NW8       30.20F                  
6HR MIN TEMP:  65; 6HR MAX TEMP:  74;                                

HOOD RIVER, OR CLEAR     73  43  33 W9G18     30.12F                  
THE DALLES, OR SUNNY     78  44  29 NW25G33   30.05F                  
6HR MIN TEMP:  73; 6HR MAX TEMP:  79;                                

$$

WAZ026-027-041>044-520-521-190100-
EAST SLOPES
  
CITY           SKY/WX    TMP DP  RH WIND       PRES   REMARKS
OMAK           SUNNY     89  29  11 S14       29.86F                  
6HR MIN TEMP:  81; 6HR MAX TEMP:  90;                                

WENATCHEE      SUNNY     82  32  16 NW18G25   29.95R                  
6HR MIN TEMP:  78; 6HR MAX TEMP:  84;                                

ELLENSBURG     SUNNY     72  44  36 NW29G38   30.04S                  
6HR MIN TEMP:  72; 6HR MAX TEMP:  75;                                

YAKIMA         SUNNY     84  47  27 NW14      29.98S                  
6HR MIN TEMP:  79; 6HR MAX TEMP:  86;                                

SUNNYSIDE ARPT CLEAR     87  49  26 W7        29.94                   
6HR MIN TEMP:  80; 6HR MAX TEMP:  87;                                

YAKIMA TC      FAIR      82  31  16 NW20      29.97F                  
6HR MIN TEMP:  77; 6HR MAX TEMP:  85;                                

$$

WAZ028-034-035-190100-
COLUMBIA BASIN
  
CITY           SKY/WX    TMP DP  RH WIND       PRES   REMARKS
EPHRATA        SUNNY     85  44  23 S18G26    29.90F                  
6HR MIN TEMP:  81; 6HR MAX TEMP:  87;                                

MOSES LAKE     SUNNY     88  41  19 SW13G20   29.92F                  
6HR MIN TEMP:  83; 6HR MAX TEMP:  89;                                

PASCO          SUNNY     89  49  25 S13G21    29.93F                  
6HR MIN TEMP:  82; 6HR MAX TEMP:  89;                                

RICHLAND ARPT  CLEAR     88  50  27 S15G22    29.92                   
6HR MIN TEMP:  83; 6HR MAX TEMP:  89;                                

HERMISTON, OR  MOSUNNY   85  48  27 SW16      29.96F                  
6HR MIN TEMP:  80; 6HR MAX TEMP:  88;                                

$$

WAZ036>038-190100-
NORTHEAST WASHINGTON
  
CITY           SKY/WX    TMP DP  RH WIND       PRES   REMARKS
SPOKANE GEIGER PTSUNNY   82  42  24 SW18G26   29.95F                  
6HR MIN TEMP:  74; 6HR MAX TEMP:  84;                                

SPOKANE FELTS  MOSUNNY   84  39  20 SW12G21   29.92F                  
6HR MIN TEMP:  75; 6HR MAX TEMP:  86;                                

FAIRCHILD AFB  MOSUNNY   81  42  25 SW20      29.95F                  
6HR MIN TEMP:  73; 6HR MAX TEMP:  82;                                

COEURDALENE,ID MOSUNNY   82  43  25 SW13      29.94F                  
6HR MIN TEMP:  70; 6HR MAX TEMP:  83;                                

DEER PARK      MOSUNNY   81  40  23 SW13      29.92F                  
6HR MIN TEMP:  72; 6HR MAX TEMP:  84;                                

$$

WAZ029>033-190100-
SOUTHEAST WASHINGTON
  
CITY           SKY/WX    TMP DP  RH WIND       PRES   REMARKS
PULLMAN        SUNNY     77  46  33 W12G22    30.02F                  
6HR MIN TEMP:  70; 6HR MAX TEMP:  78;                                

LEWISTON, ID   SUNNY     84  46  26 NW5       29.95F                  
6HR MIN TEMP:  79; 6HR MAX TEMP:  85;                                

WALLA WALLA    SUNNY     83  44  25 W9        29.97F                  
6HR MIN TEMP:  76; 6HR MAX TEMP:  84;                                

PENDLETON, OR  MOSUNNY   82  43  25 W12G24    29.99F                  
6HR MIN TEMP:  76; 6HR MAX TEMP:  84;                                

$$